NJE300 UHMM-UHMA

Flight info

Callsign NJE300
Flight time 2h 0m
Altitude 35000
Route MEBAR5E MEBAR T454 GINAN B216 DANUB DANUB1N
Aircraft A20N/M-SDE2E3FGHIRWXY/LB1

Departure

Time 2026-04-30 05:21
Airport Sokol Airport (UHMM)

Arrival

Time 2026-04-30 07:21
Airport Ugolny Yuri Ryktheu Airport (UHMA)
Time Latitude Longitude Altitude Speed Heading
2026-04-30 05:14 59.91324 150.73348 586 ft 0 kts 183°
2026-04-30 05:16 59.91316 150.73348 586 ft 3 kts 183°
2026-04-30 05:16 59.91286 150.73345 586 ft 6 kts 183°
2026-04-30 05:16 59.91246 150.73310 586 ft 7 kts 226°
2026-04-30 05:16 59.91208 150.73215 585 ft 10 kts 231°
2026-04-30 05:17 59.91160 150.73093 585 ft 12 kts 232°
2026-04-30 05:17 59.91098 150.72986 587 ft 11 kts 179°
2026-04-30 05:17 59.91069 150.73110 588 ft 11 kts 95°
2026-04-30 05:17 59.91064 150.73288 586 ft 15 kts 92°
2026-04-30 05:18 59.91059 150.73505 587 ft 17 kts 92°
2026-04-30 05:18 59.91053 150.73751 585 ft 19 kts 93°
2026-04-30 05:18 59.91046 150.74026 587 ft 20 kts 92°
2026-04-30 05:18 59.91039 150.74302 589 ft 20 kts 94°
2026-04-30 05:19 59.91031 150.74547 593 ft 19 kts 94°
2026-04-30 05:19 59.91021 150.74832 595 ft 14 kts 94°
2026-04-30 05:19 59.91059 150.74987 596 ft 9 kts 63°
2026-04-30 05:19 59.91027 150.75026 596 ft 7 kts 209°
2026-04-30 05:20 59.91019 150.74946 595 ft 0 kts 274°
2026-04-30 05:20 59.91024 150.74814 594 ft 36 kts 273°
2026-04-30 05:20 59.91050 150.73839 585 ft 102 kts 273°
2026-04-30 05:20 59.91098 150.72085 582 ft 150 kts 272°
2026-04-30 05:21 59.91159 150.70004 1093 ft 148 kts 272°
2026-04-30 05:21 59.91210 150.67892 1601 ft 156 kts 271°
2026-04-30 05:21 59.91253 150.65695 2216 ft 160 kts 271°
2026-04-30 05:21 59.91307 150.63396 2697 ft 174 kts 272°
2026-04-30 05:22 59.91375 150.60886 3093 ft 191 kts 273°
2026-04-30 05:22 59.91460 150.58089 3452 ft 213 kts 273°
2026-04-30 05:22 59.91545 150.55016 3839 ft 235 kts 273°
2026-04-30 05:22 59.91631 150.51630 4452 ft 251 kts 273°
2026-04-30 05:23 59.91722 150.48078 5315 ft 259 kts 274°
2026-04-30 05:23 59.91959 150.44534 6306 ft 259 kts 290°
2026-04-30 05:23 59.92885 150.41495 7188 ft 261 kts 315°
2026-04-30 05:23 59.94427 150.39579 8008 ft 264 kts 343°
2026-04-30 05:24 59.96265 150.39278 8844 ft 270 kts
2026-04-30 05:24 59.97987 150.40730 9789 ft 274 kts 36°
2026-04-30 05:24 59.99255 150.43643 10380 ft 289 kts 60°
2026-04-30 05:24 60.00102 150.47477 10677 ft 313 kts 68°
2026-04-30 05:25 60.00855 150.51645 11071 ft 330 kts 69°
2026-04-30 05:25 60.01625 150.55997 11829 ft 334 kts 68°
2026-04-30 05:25 60.02431 150.60400 12621 ft 339 kts 68°
2026-04-30 05:25 60.03267 150.64839 13373 ft 343 kts 68°
2026-04-30 05:26 60.04128 150.69333 14094 ft 347 kts 68°
2026-04-30 05:26 60.04997 150.73845 14850 ft 348 kts 67°
2026-04-30 05:26 60.05874 150.78391 15578 ft 351 kts 67°
2026-04-30 05:26 60.06755 150.82967 16272 ft 354 kts 67°
2026-04-30 05:27 60.07643 150.87588 16970 ft 357 kts 67°
2026-04-30 05:27 60.08538 150.92263 17656 ft 361 kts 67°
2026-04-30 05:27 60.09440 150.96988 18298 ft 364 kts 67°
2026-04-30 05:27 60.10347 151.01757 18883 ft 367 kts 67°
2026-04-30 05:28 60.11258 151.06552 19461 ft 370 kts 67°
2026-04-30 05:28 60.12175 151.11392 20029 ft 373 kts 67°
2026-04-30 05:28 60.13100 151.16284 20598 ft 376 kts 67°
2026-04-30 05:28 60.14028 151.21210 21150 ft 379 kts 68°
2026-04-30 05:29 60.14965 151.26189 21701 ft 382 kts 68°
2026-04-30 05:29 60.15905 151.31199 22261 ft 386 kts 68°
2026-04-30 05:29 60.16852 151.36262 22813 ft 389 kts 68°
2026-04-30 05:29 60.17805 151.41375 23352 ft 392 kts 68°
2026-04-30 05:30 60.18753 151.46467 23795 ft 395 kts 68°
2026-04-30 05:30 60.19717 151.51665 24279 ft 397 kts 68°
2026-04-30 05:30 60.20681 151.56871 24752 ft 399 kts 68°
2026-04-30 05:30 60.21650 151.62122 25179 ft 401 kts 68°
2026-04-30 05:31 60.22623 151.67411 25623 ft 404 kts 68°
2026-04-30 05:31 60.23603 151.72746 26045 ft 406 kts 68°
2026-04-30 05:31 60.24583 151.78100 26456 ft 409 kts 68°
2026-04-30 05:31 60.25247 151.81653 26723 ft 410 kts 65°
2026-04-30 05:32 60.26506 151.86801 27114 ft 411 kts 58°
2026-04-30 05:32 60.28000 151.91726 27498 ft 413 kts 57°
2026-04-30 05:32 60.29500 151.96677 27873 ft 415 kts 57°
2026-04-30 05:32 60.31004 152.01671 28224 ft 417 kts 57°
2026-04-30 05:33 60.32515 152.06707 28596 ft 419 kts 57°
2026-04-30 05:33 60.34029 152.11768 28949 ft 422 kts 57°
2026-04-30 05:33 60.35529 152.16787 29290 ft 423 kts 58°
2026-04-30 05:33 60.37052 152.21895 29610 ft 426 kts 58°
2026-04-30 05:34 60.38582 152.27041 29931 ft 428 kts 58°
2026-04-30 05:34 60.40117 152.32211 30202 ft 430 kts 58°
2026-04-30 05:34 60.41658 152.37415 30468 ft 432 kts 58°
2026-04-30 05:34 60.43207 152.42656 30732 ft 435 kts 58°
2026-04-30 05:35 60.44758 152.47918 31007 ft 436 kts 58°
2026-04-30 05:35 60.46313 152.53205 31351 ft 436 kts 58°
2026-04-30 05:35 60.47865 152.58497 31712 ft 436 kts 58°
2026-04-30 05:35 60.49415 152.63790 32060 ft 436 kts 58°
2026-04-30 05:36 60.50964 152.69095 32396 ft 436 kts 58°
2026-04-30 05:36 60.52508 152.74394 32737 ft 436 kts 58°
2026-04-30 05:36 60.54030 152.79630 33043 ft 436 kts 58°
2026-04-30 05:36 60.55573 152.84947 33359 ft 435 kts 58°
2026-04-30 05:37 60.57109 152.90257 33669 ft 435 kts 58°
2026-04-30 05:37 60.58645 152.95579 33947 ft 435 kts 58°
2026-04-30 05:37 60.60176 153.00892 34164 ft 436 kts 58°
2026-04-30 05:37 60.61709 153.06227 34351 ft 436 kts 58°
2026-04-30 05:38 60.63239 153.11562 34549 ft 437 kts 58°
2026-04-30 05:38 60.64775 153.16929 34750 ft 438 kts 58°
2026-04-30 05:38 60.66297 153.22237 34859 ft 439 kts 58°
2026-04-30 05:38 60.67846 153.27614 34858 ft 441 kts 58°
2026-04-30 05:39 60.71009 153.38564 34860 ft 452 kts 58°
2026-04-30 05:39 60.74213 153.49693 34857 ft 454 kts 58°
2026-04-30 05:40 60.77385 153.60765 34862 ft 454 kts 58°
2026-04-30 05:40 60.80569 153.71930 34856 ft 454 kts 58°
2026-04-30 05:41 60.83739 153.83123 34857 ft 454 kts 59°
2026-04-30 05:41 60.86897 153.94343 34855 ft 454 kts 59°
2026-04-30 05:42 60.90043 154.05585 34857 ft 454 kts 59°
2026-04-30 05:42 60.93178 154.16841 34855 ft 454 kts 59°
2026-04-30 05:43 60.96305 154.28126 34856 ft 454 kts 59°
2026-04-30 05:43 60.99398 154.39342 34853 ft 453 kts 59°
2026-04-30 05:44 61.02499 154.50643 34859 ft 453 kts 59°
2026-04-30 05:44 61.05602 154.62009 34857 ft 453 kts 59°
2026-04-30 05:45 61.08688 154.73368 34856 ft 453 kts 59°
2026-04-30 05:45 61.11767 154.84759 34853 ft 453 kts 59°
2026-04-30 05:46 61.14839 154.96186 34859 ft 453 kts 59°
2026-04-30 05:46 61.17894 155.07604 34857 ft 453 kts 60°
2026-04-30 05:47 61.20940 155.19048 34851 ft 453 kts 60°
2026-04-30 05:47 61.23955 155.30431 34850 ft 453 kts 60°
2026-04-30 05:48 61.26983 155.41922 34847 ft 453 kts 60°
2026-04-30 05:48 61.29998 155.53423 34851 ft 453 kts 60°
2026-04-30 05:49 61.33006 155.64961 34840 ft 452 kts 60°
2026-04-30 05:49 61.36001 155.76503 34839 ft 453 kts 60°
2026-04-30 05:50 61.38970 155.88010 34838 ft 452 kts 60°
2026-04-30 05:50 61.41943 155.99590 34833 ft 452 kts 60°
2026-04-30 05:51 61.44906 156.11188 34832 ft 453 kts 60°
2026-04-30 05:51 61.47865 156.22833 34830 ft 452 kts 61°
2026-04-30 05:52 61.50810 156.34484 34833 ft 452 kts 61°
2026-04-30 05:52 61.53743 156.46148 34830 ft 452 kts 61°
2026-04-30 05:53 61.56651 156.57775 34835 ft 452 kts 61°
2026-04-30 05:53 61.59564 156.69486 34834 ft 452 kts 61°
2026-04-30 05:54 61.62475 156.81248 34838 ft 453 kts 61°
2026-04-30 05:54 61.65378 156.93041 34837 ft 453 kts 61°
2026-04-30 05:55 61.68249 157.04771 34836 ft 453 kts 62°
2026-04-30 05:55 61.71129 157.16597 34836 ft 453 kts 62°
2026-04-30 05:56 61.73996 157.28433 34832 ft 453 kts 62°
2026-04-30 05:56 61.76852 157.40290 34836 ft 453 kts 62°
2026-04-30 05:57 61.79682 157.52102 34829 ft 453 kts 62°
2026-04-30 05:57 61.82517 157.64000 34830 ft 453 kts 62°
2026-04-30 05:58 61.85344 157.75930 34829 ft 453 kts 62°
2026-04-30 05:58 61.88161 157.87883 34829 ft 453 kts 62°
2026-04-30 05:59 61.90969 157.99865 34830 ft 453 kts 62°
2026-04-30 05:59 61.93772 158.11891 34825 ft 454 kts 62°
2026-04-30 06:00 61.96561 158.23926 34827 ft 453 kts 62°
2026-04-30 06:00 61.99342 158.35990 34830 ft 454 kts 63°
2026-04-30 06:01 62.02092 158.47990 34824 ft 454 kts 63°
2026-04-30 06:01 62.04869 158.60173 34828 ft 454 kts 63°
2026-04-30 06:02 62.07598 158.72218 34828 ft 454 kts 63°
2026-04-30 06:02 62.10338 158.84376 34830 ft 454 kts 63°
2026-04-30 06:03 62.13067 158.96556 34831 ft 454 kts 63°
2026-04-30 06:03 62.15784 159.08755 34830 ft 454 kts 63°
2026-04-30 06:04 62.18488 159.20962 34829 ft 453 kts 63°
2026-04-30 06:05 62.22525 159.39321 34833 ft 454 kts 63°
2026-04-30 06:05 62.25204 159.51594 34832 ft 454 kts 64°
2026-04-30 06:06 62.27860 159.63831 34834 ft 454 kts 64°
2026-04-30 06:06 62.30521 159.76164 34839 ft 454 kts 64°
2026-04-30 06:07 62.33170 159.88511 34830 ft 454 kts 64°
2026-04-30 06:07 62.35811 160.00892 34829 ft 455 kts 64°
2026-04-30 06:08 62.38438 160.13288 34828 ft 455 kts 64°
2026-04-30 06:08 62.41060 160.25732 34829 ft 455 kts 64°
2026-04-30 06:09 62.43667 160.38177 34831 ft 455 kts 64°
2026-04-30 06:09 62.46245 160.50557 34833 ft 455 kts 64°
2026-04-30 06:10 62.48835 160.63070 34836 ft 455 kts 64°
2026-04-30 06:10 62.51410 160.75587 34834 ft 455 kts 65°
2026-04-30 06:11 62.53972 160.88119 34836 ft 455 kts 65°
2026-04-30 06:11 62.56528 161.00695 34835 ft 455 kts 65°
2026-04-30 06:12 62.59069 161.13279 34834 ft 455 kts 65°
2026-04-30 06:12 62.61601 161.25889 34839 ft 455 kts 65°
2026-04-30 06:13 62.64106 161.38447 34826 ft 455 kts 65°
2026-04-30 06:13 62.66614 161.51100 34827 ft 455 kts 65°
2026-04-30 06:14 62.68693 161.61646 34831 ft 455 kts 65°
2026-04-30 06:14 62.71183 161.74349 34829 ft 455 kts 65°
2026-04-30 06:15 62.74060 161.89130 34829 ft 455 kts 65°
2026-04-30 06:15 62.76127 161.99813 34831 ft 455 kts 66°
2026-04-30 06:16 62.78565 162.12490 34834 ft 455 kts 66°
2026-04-30 06:16 62.81012 162.25295 34832 ft 455 kts 66°
2026-04-30 06:17 62.83442 162.38096 34832 ft 455 kts 66°
2026-04-30 06:17 62.85861 162.50920 34833 ft 455 kts 66°
2026-04-30 06:18 62.88269 162.63768 34834 ft 456 kts 66°
2026-04-30 06:18 62.90665 162.76636 34838 ft 455 kts 66°
2026-04-30 06:19 62.93051 162.89529 34838 ft 456 kts 66°
2026-04-30 06:19 62.95408 163.02357 34832 ft 456 kts 66°
2026-04-30 06:20 62.97771 163.15297 34827 ft 456 kts 67°
2026-04-30 06:20 63.00126 163.28281 34836 ft 456 kts 67°
2026-04-30 06:21 63.02471 163.41298 34829 ft 456 kts 67°
2026-04-30 06:21 63.04798 163.54302 34828 ft 456 kts 67°
2026-04-30 06:22 63.07113 163.67324 34839 ft 456 kts 67°
2026-04-30 06:22 63.09403 163.80295 34831 ft 456 kts 67°
2026-04-30 06:23 63.11695 163.93367 34836 ft 456 kts 68°
2026-04-30 06:23 63.13984 164.06505 34832 ft 457 kts 68°
2026-04-30 06:24 63.16253 164.19627 34829 ft 457 kts 68°
2026-04-30 06:24 63.18514 164.32792 34833 ft 457 kts 68°
2026-04-30 06:25 63.20762 164.45970 34834 ft 457 kts 68°
2026-04-30 06:25 63.22984 164.59087 34833 ft 457 kts 68°
2026-04-30 06:26 63.25214 164.72337 34829 ft 458 kts 68°
2026-04-30 06:26 63.27428 164.85590 34814 ft 457 kts 69°
2026-04-30 06:27 63.29635 164.98853 34828 ft 457 kts 69°
2026-04-30 06:27 63.31837 165.12145 34818 ft 457 kts 69°
2026-04-30 06:28 63.34012 165.25365 34822 ft 457 kts 69°
2026-04-30 06:28 63.36191 165.38703 34818 ft 457 kts 69°
2026-04-30 06:29 63.38278 165.52114 34828 ft 458 kts 71°
2026-04-30 06:29 63.40368 165.65517 34829 ft 457 kts 69°
2026-04-30 06:30 63.42534 165.78908 34819 ft 457 kts 69°
2026-04-30 06:30 63.44639 165.92228 34828 ft 457 kts 69°
2026-04-30 06:31 63.46734 166.05670 34817 ft 457 kts 70°
2026-04-30 06:31 63.48815 166.19134 34826 ft 458 kts 70°
2026-04-30 06:32 63.50886 166.32633 34823 ft 458 kts 70°
2026-04-30 06:32 63.52942 166.46141 34825 ft 458 kts 70°
2026-04-30 06:33 63.54975 166.59591 34827 ft 458 kts 70°
2026-04-30 06:33 63.57006 166.73134 34818 ft 458 kts 70°
2026-04-30 06:34 63.59026 166.86706 34821 ft 458 kts 70°
2026-04-30 06:34 63.61033 167.00304 34823 ft 458 kts 71°
2026-04-30 06:35 63.63027 167.13912 34829 ft 458 kts 71°
2026-04-30 06:35 63.64994 167.27448 34830 ft 458 kts 71°
2026-04-30 06:36 63.66964 167.41102 34823 ft 458 kts 71°
2026-04-30 06:36 63.68888 167.54825 34827 ft 458 kts 71°
2026-04-30 06:37 63.70791 167.68542 34825 ft 458 kts 72°
2026-04-30 06:37 63.72676 167.82207 34824 ft 458 kts 72°
2026-04-30 06:38 63.74561 167.95978 34831 ft 458 kts 72°
2026-04-30 06:38 63.76431 168.09753 34829 ft 458 kts 72°
2026-04-30 06:39 63.78288 168.23542 34827 ft 458 kts 72°
2026-04-30 06:39 63.80134 168.37369 34827 ft 459 kts 72°
2026-04-30 06:40 63.81967 168.51213 34827 ft 459 kts 72°
2026-04-30 06:40 63.83790 168.65105 34827 ft 459 kts 72°
2026-04-30 06:41 63.85585 168.78893 34829 ft 459 kts 73°
2026-04-30 06:41 63.87378 168.92807 34829 ft 459 kts 73°
2026-04-30 06:42 63.89159 169.06728 34831 ft 460 kts 73°
2026-04-30 06:42 63.90929 169.20697 34829 ft 460 kts 73°
2026-04-30 06:43 63.92686 169.34686 34830 ft 460 kts 73°
2026-04-30 06:43 63.94428 169.48677 34829 ft 460 kts 73°
2026-04-30 06:44 63.96156 169.62679 34825 ft 460 kts 73°
2026-04-30 06:44 63.97873 169.76722 34824 ft 460 kts 74°
2026-04-30 06:45 63.99568 169.90711 34822 ft 461 kts 74°
2026-04-30 06:45 64.01258 170.04792 34829 ft 461 kts 74°
2026-04-30 06:46 64.02936 170.18905 34822 ft 460 kts 74°
2026-04-30 06:46 64.04600 170.33033 34829 ft 460 kts 74°
2026-04-30 06:47 64.06250 170.47170 34830 ft 460 kts 75°
2026-04-30 06:47 64.07880 170.61253 34827 ft 462 kts 75°
2026-04-30 06:48 64.09526 170.75444 34830 ft 461 kts 75°
2026-04-30 06:48 64.11183 170.89626 34827 ft 461 kts 75°
2026-04-30 06:49 64.12830 171.03836 34827 ft 461 kts 75°
2026-04-30 06:49 64.14455 171.18053 34825 ft 461 kts 75°
2026-04-30 06:50 64.16065 171.32295 34824 ft 462 kts 75°
2026-04-30 06:50 64.17651 171.46466 34821 ft 462 kts 75°
2026-04-30 06:51 64.19236 171.60772 34817 ft 462 kts 75°
2026-04-30 06:51 64.20806 171.75088 34819 ft 462 kts 76°
2026-04-30 06:52 64.22362 171.89416 34816 ft 462 kts 76°
2026-04-30 06:52 64.23904 172.03761 34816 ft 462 kts 76°
2026-04-30 06:53 64.25433 172.18126 34820 ft 463 kts 76°
2026-04-30 06:53 64.26936 172.32405 34819 ft 459 kts 76°
2026-04-30 06:53 64.27673 172.39455 34820 ft 447 kts 76°
2026-04-30 06:54 64.28388 172.46342 34826 ft 441 kts 76°
2026-04-30 06:54 64.29816 172.60183 34823 ft 446 kts 76°
2026-04-30 06:55 64.31236 172.74084 34823 ft 445 kts 76°
2026-04-30 06:55 64.32643 172.88008 34823 ft 445 kts 77°
2026-04-30 06:56 64.34037 173.01945 34824 ft 445 kts 77°
2026-04-30 06:56 64.35407 173.15792 34824 ft 446 kts 77°
2026-04-30 06:57 64.36775 173.29758 34825 ft 446 kts 77°
2026-04-30 06:57 64.38130 173.43743 34830 ft 446 kts 77°
2026-04-30 06:57 64.38802 173.50738 34681 ft 446 kts 77°
2026-04-30 06:58 64.39471 173.57735 34450 ft 444 kts 77°
2026-04-30 06:58 64.40132 173.64699 34222 ft 443 kts 77°
2026-04-30 06:58 64.40569 173.69311 34080 ft 444 kts 77°
2026-04-30 06:58 64.41440 173.78567 33700 ft 444 kts 77°
2026-04-30 06:59 64.42095 173.85573 33042 ft 446 kts 77°
2026-04-30 06:59 64.42748 173.92602 32259 ft 447 kts 77°
2026-04-30 06:59 64.43398 173.99641 31525 ft 446 kts 77°
2026-04-30 06:59 64.43832 174.04357 31208 ft 440 kts 77°
2026-04-30 07:00 64.44459 174.11214 30783 ft 432 kts 77°
2026-04-30 07:00 64.45075 174.17986 30257 ft 427 kts 77°
2026-04-30 07:00 64.45680 174.24673 29696 ft 422 kts 77°
2026-04-30 07:00 64.46273 174.31267 29161 ft 415 kts 77°
2026-04-30 07:01 64.46853 174.37754 28650 ft 407 kts 76°
2026-04-30 07:01 64.47423 174.44138 28133 ft 401 kts 77°
2026-04-30 07:01 64.47982 174.50447 27608 ft 396 kts 77°
2026-04-30 07:01 64.48530 174.56660 27081 ft 391 kts 77°
2026-04-30 07:02 64.49062 174.62727 26565 ft 386 kts 77°
2026-04-30 07:02 64.49593 174.68808 26056 ft 382 kts 77°
2026-04-30 07:02 64.50115 174.74829 25545 ft 378 kts 77°
2026-04-30 07:02 64.50630 174.80787 25036 ft 374 kts 77°
2026-04-30 07:03 64.51137 174.86680 24515 ft 371 kts 76°
2026-04-30 07:03 64.51636 174.92521 24017 ft 367 kts 76°
2026-04-30 07:03 64.52130 174.98317 23505 ft 364 kts 76°
2026-04-30 07:03 64.52617 175.04068 22981 ft 360 kts 76°
2026-04-30 07:04 64.53095 175.09740 22491 ft 355 kts 76°
2026-04-30 07:04 64.53564 175.15335 21997 ft 350 kts 77°
2026-04-30 07:04 64.54026 175.20850 21514 ft 346 kts 77°
2026-04-30 07:04 64.54494 175.26449 21047 ft 366 kts 78°
2026-04-30 07:05 64.55492 175.38526 19982 ft 386 kts 78°
2026-04-30 07:05 64.55993 175.44663 19447 ft 385 kts 78°
2026-04-30 07:05 64.56488 175.50765 18903 ft 381 kts 78°
2026-04-30 07:06 64.56966 175.56693 18382 ft 375 kts 78°
2026-04-30 07:06 64.57443 175.62620 17824 ft 370 kts 78°
2026-04-30 07:06 64.57910 175.68461 17301 ft 363 kts 78°
2026-04-30 07:06 64.58370 175.74208 16794 ft 357 kts 78°
2026-04-30 07:07 64.58819 175.79840 16288 ft 351 kts 78°
2026-04-30 07:07 64.59224 175.85416 15802 ft 347 kts 82°
2026-04-30 07:07 64.59397 175.90994 15319 ft 343 kts 88°
2026-04-30 07:07 64.59304 175.96503 14825 ft 339 kts 92°
2026-04-30 07:08 64.59141 176.01963 14372 ft 335 kts 93°
2026-04-30 07:08 64.59003 176.07355 13905 ft 332 kts 92°
2026-04-30 07:08 64.58873 176.12692 13420 ft 329 kts 92°
2026-04-30 07:08 64.58740 176.17978 12945 ft 324 kts 93°
2026-04-30 07:09 64.58603 176.23193 12484 ft 320 kts 93°
2026-04-30 07:09 64.58466 176.28256 12052 ft 316 kts 93°
2026-04-30 07:09 64.58326 176.33328 11608 ft 312 kts 93°
2026-04-30 07:09 64.58185 176.38349 11168 ft 309 kts 94°
2026-04-30 07:10 64.58044 176.43302 10731 ft 306 kts 94°
2026-04-30 07:10 64.57902 176.48213 10374 ft 300 kts 94°
2026-04-30 07:10 64.57764 176.52953 10248 ft 287 kts 94°
2026-04-30 07:10 64.57629 176.57517 9991 ft 280 kts 94°
2026-04-30 07:11 64.57496 176.61983 9762 ft 272 kts 94°
2026-04-30 07:11 64.57363 176.66377 9632 ft 275 kts 94°
2026-04-30 07:11 64.57229 176.70810 9476 ft 274 kts 94°
2026-04-30 07:11 64.57092 176.75240 9118 ft 274 kts 94°
2026-04-30 07:12 64.56956 176.79636 8758 ft 271 kts 94°
2026-04-30 07:12 64.56820 176.83986 8417 ft 267 kts 94°
2026-04-30 07:12 64.56685 176.88263 8064 ft 264 kts 94°
2026-04-30 07:12 64.56551 176.92486 7727 ft 260 kts 94°
2026-04-30 07:13 64.56416 176.96660 7387 ft 257 kts 94°
2026-04-30 07:13 64.56283 177.00774 7054 ft 254 kts 94°
2026-04-30 07:13 64.56150 177.04844 6719 ft 251 kts 95°
2026-04-30 07:13 64.56017 177.08874 6388 ft 248 kts 95°
2026-04-30 07:14 64.55884 177.12864 6044 ft 246 kts 95°
2026-04-30 07:14 64.55754 177.16756 5720 ft 243 kts 95°
2026-04-30 07:14 64.55622 177.20649 5396 ft 240 kts 95°
2026-04-30 07:14 64.55490 177.24505 5077 ft 237 kts 95°
2026-04-30 07:15 64.55359 177.28313 4761 ft 235 kts 95°
2026-04-30 07:15 64.55229 177.32085 4443 ft 233 kts 95°
2026-04-30 07:15 64.55098 177.35823 4132 ft 231 kts 95°
2026-04-30 07:15 64.54899 177.39642 3825 ft 254 kts 102°
2026-04-30 07:16 64.54433 177.43805 3667 ft 272 kts 104°
2026-04-30 07:16 64.53953 177.48042 3619 ft 268 kts 104°
2026-04-30 07:16 64.53492 177.52153 3533 ft 258 kts 104°
2026-04-30 07:16 64.53427 177.56126 3364 ft 246 kts 73°
2026-04-30 07:17 64.54355 177.59265 3244 ft 234 kts 35°
2026-04-30 07:17 64.55774 177.60932 3152 ft 224 kts 24°
2026-04-30 07:17 64.58518 177.63385 3027 ft 196 kts 22°
2026-04-30 07:18 64.59763 177.64444 2893 ft 189 kts 21°
2026-04-30 07:18 64.61008 177.65475 2615 ft 189 kts 20°
2026-04-30 07:18 64.62250 177.66464 2331 ft 188 kts 19°
2026-04-30 07:18 64.63489 177.67415 2051 ft 186 kts 18°
2026-04-30 07:19 64.64708 177.68317 1787 ft 179 kts 17°
2026-04-30 07:19 64.65906 177.69175 1560 ft 174 kts 17°
2026-04-30 07:19 64.67024 177.69953 1269 ft 161 kts 17°
2026-04-30 07:19 64.68047 177.70651 1034 ft 146 kts 16°
2026-04-30 07:20 64.68975 177.71273 792 ft 131 kts 15°
2026-04-30 07:20 64.69840 177.71842 620 ft 133 kts 14°
2026-04-30 07:20 64.70725 177.72409 429 ft 130 kts 14°
2026-04-30 07:20 64.71602 177.72962 269 ft 131 kts 14°
2026-04-30 07:21 64.72484 177.73490 162 ft 125 kts 13°
2026-04-30 07:21 64.73145 177.73914 174 ft 59 kts 16°
2026-04-30 07:21 64.73287 177.74070 176 ft 12 kts 40°
2026-04-30 07:21 64.73300 177.74032 176 ft 6 kts 243°